"Pseudo-MPEC" for N00j7wn

Created 2021 Dec 5 1:07:21 UT using Find_Orb

Click here for an explanation of pseudo-MPECs

 
 Astrometry: 
     N00j7wn  S2021 11 206cAstrometryxeS?]4'ysrSs]/X==P9-xAQ+ND+4e]yV6S]iVB()C51
     N00j7wn  s2021 11 20%7aC/76piWGt,EvkYN24_HgB7HR3*[9Bv6+g!V7H*wG[Bwq810:SC51
     N00j7wn  S2021 11 20,Q!_d+tW'KGf8'gI?5S64_e0.w@H*Ly_eD:uewl#$ZCIZ:`HSV4=C51
     N00j7wn  s2021 11 20ee7gIcA.)_,C42.1%ej9lg'NZ3wR[4?*R:l5yy2h1tSj_C)+1FelC51
     N00j7wn  S2021 11 20n'50XgFGaPS!ChUvw-tPR3N5s95^+8,f'=EIcl0mEejg@fA=NoH(C51
     N00j7wn  s2021 11 20PoUi+nNw;redacted;$q:M4`7(+#LLw9m;Ab=!Dmp\!HdxYWtM^bC51
     N00j7wn  S2021 11 203vDSqjPd7k+yb,xURkX0VigP=L9PH]IU.m+r+QW^9c\I@4:x4J.kC51
     N00j7wn  s2021 11 20nPu14;$LdYZ2S=o0UcN82HL;wb`E8[V:JKrvjQ0Jcclicks?NN(VC51
     N00j7wn  S2021 11 21@:$GAXr@V=Y7MM;xF7hQhereHD!e=umFWIfL'gm_)eZ_\9Q/@la@C51
     N00j7wn  s2021 11 21^Pr,tMKls8ZBX,$FS=OrwiTj@=1f$QJ.#0]+\O-UAgQyM/E'OxX,C51
     N00j7wn  S2021 11 21I8I4$(?)6w9s(OHi^C1jC^yh?Zqq95$''P,/I5F(s(XvL?]`bu:+C51
     N00j7wn  s2021 11 21ntf3lDOsKY%5]n5]Q.@/*l%JOff$qsTt_hf]q9b+swhgfKuk'Y7aC51
     N00j7wn  S2021 11 21]f'forJE-u;IW)i:U)V`.(CtSboyCO6*fWe6L2th[QKKET!@0/HSC51
     N00j7wn  s2021 11 21*oSU9\kwIHc9$5KxWa))fNexplanation/t*P*mx]QTS_/lAUCDWC51
     N00j7wn KC2021 11 29.42818 10 56 52.86 +28 15 51.8    ~BTBM       VNEOCP291
     N00j7wn KC2021 11 29.43608 10 56 53.79 +28 15 46.0    ~BTBM 21.6 GVNEOCP291
     N00j7wn KC2021 11 29.44399 10 56 54.73 +28 15 40.5    ~BTBM 21.6 GVNEOCP291
     N00j7wn KC2021 11 30.40595 10 58 49.25 +28 04 23.4    ~BUAM 21.7 RoNEOCP291
     N00j7wn KC2021 11 30.41117 10 58 49.85 +28 04 20.0    ~BUAM 21.7 RoNEOCP291
     N00j7wn KC2021 11 30.41639 10 58 50.45 +28 04 16.3    ~BUAM 22.4 RoNEOCP291

Station data:
(291) LPL/Spacewatch II  (N31.961669 W111.599905)  US/Arizona.  Observers J.
   V. Scotti, R. S. McMillan. 1.8-m f/2.7 reflector + CCD.
(C51) WISE. Measurers A. Mainzer, E. Wright, J. Bauer, T. Grav, J. Dailey, J.
   Masiero, R. Cutri, R. McMillan, R. Walker.

Orbital elements:  N00j7wn
   Perihelion 2021 Oct 4.404738 TT =  9:42:49 (JD 2459491.904738)
Epoch 2021 Nov 30.0 TT = JDT 2459548.5   Earth MOID: 0.0134   AutoNEOCP
M  42.68777063                      (J2000 ecliptic)
n   0.75426403     Peri.   41.91591
a   1.19523632     Node   344.90346
e   0.1755958      Incl.    6.44504
P   1.31/477.28d   H   21.8     G   0.15   q 0.98535780  Q 1.40511485
From 13 observations 2021 Nov. 20-30; mean residual 2".11
Residuals in arcseconds: 
211120 C51  5.2-  1.7+    211121 C51  1.6+  .55-    211130 291  1.8-  .67+    
211120 C51  2.7-  .87+    211121 C51  5.9+  3.4-    211130 291  1.7-  .63+    
211120 C51  2.5-  .33+    211129 291  1.4+  .05-    211130 291  1.5-  .31+    
211120 C51  .32+  1.3+    211129 291  1.7+  .66-    
211121 C51  1.2+  .01-    211129 291  2.3+  .96-    

Ephemerides (geocentric):
Date (UTC) HH   RA              Dec         delta   r     elong  mag
---- -- -- --  -------------   -----------  ------ ------ -----  ---
2021 12 05 01  11 07 23.527   +27 11 48.08  .34328 1.0740  95.4 22.0
2021 12 05 02  11 07 27.879   +27 11 20.49  .34325 1.0741  95.5 22.0
2021 12 05 03  11 07 32.226   +27 10 52.92  .34323 1.0742  95.5 22.0
2021 12 05 04  11 07 36.567   +27 10 25.36  .34321 1.0743  95.5 22.0
2021 12 05 05  11 07 40.904   +27 09 57.82  .34318 1.0744  95.5 22.0
2021 12 05 06  11 07 45.235   +27 09 30.30  .34316 1.0745  95.6 22.0
2021 12 05 07  11 07 49.561   +27 09 02.79  .34313 1.0746  95.6 22.0
2021 12 05 08  11 07 53.882   +27 08 35.30  .34311 1.0747  95.6 22.0
2021 12 05 09  11 07 58.198   +27 08 07.82  .34308 1.0748  95.6 22.0
2021 12 05 10  11 08 02.509   +27 07 40.36  .34306 1.0749  95.6 22.0
2021 12 05 11  11 08 06.815   +27 07 12.91  .34304 1.0750  95.7 22.0
2021 12 05 12  11 08 11.115   +27 06 45.48  .34301 1.0751  95.7 22.0
2021 12 05 13  11 08 15.411   +27 06 18.07  .34299 1.0752  95.7 22.0
2021 12 05 14  11 08 19.701   +27 05 50.67  .34296 1.0753  95.7 22.0
2021 12 05 15  11 08 23.986   +27 05 23.29  .34294 1.0754  95.8 22.0
2021 12 05 16  11 08 28.266   +27 04 55.93  .34291 1.0755  95.8 22.0
2021 12 05 17  11 08 32.541   +27 04 28.58  .34288 1.0756  95.8 22.0
2021 12 05 18  11 08 36.811   +27 04 01.25  .34286 1.0757  95.8 22.0
2021 12 05 19  11 08 41.075   +27 03 33.93  .34283 1.0758  95.8 22.0
2021 12 05 20  11 08 45.335   +27 03 06.63  .34281 1.0760  95.9 22.0
2021 12 05 21  11 08 49.589   +27 02 39.34  .34278 1.0761  95.9 22.0
2021 12 05 22  11 08 53.838   +27 02 12.08  .34276 1.0762  95.9 22.0
2021 12 05 23  11 08 58.082   +27 01 44.82  .34273 1.0763  95.9 22.0
2021 12 06 00  11 09 02.321   +27 01 17.59  .34271 1.0764  96.0 22.0
2021 12 06 01  11 09 06.554   +27 00 50.37  .34268 1.0765  96.0 22.0
2021 12 06 02  11 09 10.783   +27 00 23.17  .34265 1.0766  96.0 22.0
2021 12 06 03  11 09 15.006   +26 59 55.98  .34263 1.0767  96.0 22.0
2021 12 06 04  11 09 19.224   +26 59 28.81  .34260 1.0768  96.0 22.0
2021 12 06 05  11 09 23.438   +26 59 01.66  .34257 1.0769  96.1 22.0
2021 12 06 06  11 09 27.645   +26 58 34.52  .34255 1.0770  96.1 22.0
2021 12 06 07  11 09 31.848   +26 58 07.40  .34252 1.0771  96.1 22.0
2021 12 06 08  11 09 36.046   +26 57 40.29  .34249 1.0772  96.1 22.0
2021 12 06 09  11 09 40.238   +26 57 13.21  .34247 1.0773  96.2 22.0
2021 12 06 10  11 09 44.425   +26 56 46.13  .34244 1.0774  96.2 22.0
2021 12 06 11  11 09 48.607   +26 56 19.08  .34241 1.0775  96.2 22.0
2021 12 06 12  11 09 52.784   +26 55 52.04  .34239 1.0776  96.2 22.0
2021 12 06 13  11 09 56.955   +26 55 25.02  .34236 1.0777  96.2 22.0
2021 12 06 14  11 10 01.122   +26 54 58.01  .34233 1.0779  96.3 22.0
2021 12 06 15  11 10 05.283   +26 54 31.02  .34230 1.0780  96.3 22.0
2021 12 06 16  11 10 09.439   +26 54 04.05  .34228 1.0781  96.3 22.0
2021 12 06 17  11 10 13.590   +26 53 37.09  .34225 1.0782  96.3 22.0
2021 12 06 18  11 10 17.736   +26 53 10.15  .34222 1.0783  96.4 22.0
2021 12 06 19  11 10 21.876   +26 52 43.23  .34219 1.0784  96.4 22.0
2021 12 06 20  11 10 26.012   +26 52 16.33  .34217 1.0785  96.4 22.0
2021 12 06 21  11 10 30.142   +26 51 49.44  .34214 1.0786  96.4 22.0
2021 12 06 22  11 10 34.267   +26 51 22.56  .34211 1.0787  96.5 22.0
2021 12 06 23  11 10 38.386   +26 50 55.71  .34208 1.0788  96.5 22.0
2021 12 07 00  11 10 42.501   +26 50 28.87  .34205 1.0789  96.5 22.0